• Em Portugal
  • Lista de países
  • Para 7 dias
  • Temperatura da água
  • Mapas de satélite
  • Mapa do tempo
  • Widgets de tempo
  • user-avatar
    Iniciar Sessão

    Previsão horária em Kamionka

    Hoje, 23 Abril, Segunda-feira

    Tempo Temperatura Precipitação Vento Pressão Humidade
    00:00 +12°C° 0 mm 2 m/s 703 mmHg 74%
    01:00 +12°C° 0 mm 2 m/s 703 mmHg 71%
    02:00 +10°C° 0,2 mm 2 m/s 703 mmHg 73%
    03:00 +10°C° 0,2 mm 2 m/s 702 mmHg 75%
    04:00 +10°C° 0,2 mm 2 m/s 702 mmHg 77%
    05:00 +12°C° 0 mm 2 m/s 702 mmHg 77%
    06:00 +13°C° 0 mm 2 m/s 702 mmHg 76%
    07:00 +14°C° 0 mm 2 m/s 703 mmHg 74%
    08:00 +16°C° 0 mm 2 m/s 703 mmHg 68%
    09:00 +18°C° 0 mm 2 m/s 703 mmHg 63%
    10:00 +20°C° 0 mm 3 m/s 704 mmHg 57%
    11:00 +20°C° 0,3 mm 3 m/s 703 mmHg 55%
    12:00 +21°C° 0,3 mm 4 m/s 703 mmHg 53%
    13:00 +21°C° 0 mm 3 m/s 704 mmHg 53%
    14:00 +19°C° 0,6 mm 3 m/s 703 mmHg 60%
    15:00 +18°C° 0,6 mm 3 m/s 703 mmHg 67%
    16:00 +17°C° 0,6 mm 3 m/s 703 mmHg 74%
    17:00 +16°C° 0,2 mm 3 m/s 703 mmHg 79%
    18:00 +14°C° 0,2 mm 3 m/s 703 mmHg 83%
    19:00 +14°C° 0,2 mm 2 m/s 703 mmHg 87%
    20:00 +13°C° 0 mm 2 m/s 703 mmHg 89%
    21:00 +12°C° 0 mm 2 m/s 703 mmHg 91%
    22:00 +10°C° 0 mm 2 m/s 703 mmHg 92%
    23:00 +10°C° 0 mm 2 m/s 703 mmHg 93%

    Amanhã, 24 Abril, Terça-feira

    Tempo Temperatura Precipitação Vento Pressão Humidade
    00:00 +9°C° 0 mm 2 m/s 704 mmHg 93%
    01:00 +9°C° 0 mm 2 m/s 704 mmHg 93%
    02:00 +8°C° 0 mm 2 m/s 704 mmHg 93%
    03:00 +8°C° 0 mm 2 m/s 704 mmHg 93%
    04:00 +7°C° 0 mm 2 m/s 704 mmHg 92%
    05:00 +8°C° 0 mm 2 m/s 704 mmHg 88%
    06:00 +9°C° 0 mm 2 m/s 705 mmHg 84%
    07:00 +10°C° 0 mm 2 m/s 705 mmHg 80%
    08:00 +12°C° 0 mm 3 m/s 705 mmHg 73%
    09:00 +13°C° 0 mm 3 m/s 705 mmHg 66%
    10:00 +15°C° 0 mm 4 m/s 706 mmHg 60%
    11:00 +15°C° 0 mm 4 m/s 705 mmHg 57%
    12:00 +17°C° 0 mm 4 m/s 705 mmHg 55%
    13:00 +18°C° 0 mm 4 m/s 705 mmHg 53%
    14:00 +17°C° 0 mm 5 m/s 705 mmHg 52%
    15:00 +17°C° 0 mm 5 m/s 704 mmHg 52%
    16:00 +17°C° 0 mm 5 m/s 704 mmHg 52%
    17:00 +15°C° 0 mm 4 m/s 704 mmHg 58%
    18:00 +14°C° 0 mm 3 m/s 704 mmHg 64%
    19:00 +13°C° 0 mm 2 m/s 704 mmHg 69%
    20:00 +12°C° 0 mm 2 m/s 704 mmHg 73%
    21:00 +11°C° 0 mm 1 m/s 704 mmHg 76%
    22:00 +10°C° 0 mm 1 m/s 704 mmHg 80%
    23:00 +10°C° 0 mm 1 m/s 704 mmHg 81%

    Depois de amanhã, 25 Abril, Quarta-feira

    Tempo Temperatura Precipitação Vento Pressão Humidade
    00:00 +10°C° 0 mm 1 m/s 704 mmHg 82%
    01:00 +9°C° 0 mm 1 m/s 704 mmHg 82%
    02:00 +9°C° 0 mm 1 m/s 703 mmHg 82%
    03:00 +9°C° 0 mm 1 m/s 703 mmHg 82%
    04:00 +8°C° 0 mm 2 m/s 703 mmHg 82%
    05:00 +9°C° 0 mm 2 m/s 703 mmHg 80%
    06:00 +10°C° 0 mm 3 m/s 703 mmHg 78%
    07:00 +11°C° 0 mm 4 m/s 703 mmHg 76%
    08:00 +13°C° 0 mm 5 m/s 703 mmHg 69%
    09:00 +14°C° 0 mm 5 m/s 703 mmHg 63%
    10:00 +16°C° 0 mm 6 m/s 703 mmHg 56%
    11:00 +17°C° 0 mm 6 m/s 702 mmHg 54%
    12:00 +17°C° 0 mm 7 m/s 702 mmHg 53%
    13:00 +18°C° 0 mm 7 m/s 702 mmHg 51%
    14:00 +18°C° 0 mm 7 m/s 701 mmHg 52%
    15:00 +19°C° 0 mm 6 m/s 701 mmHg 52%
    16:00 +20°C° 0 mm 6 m/s 701 mmHg 53%
    17:00 +17°C° 0,2 mm 6 m/s 700 mmHg 60%
    18:00 +15°C° 0,2 mm 5 m/s 700 mmHg 66%
    19:00 +13°C° 0,2 mm 4 m/s 700 mmHg 73%
    20:00 +12°C° 0 mm 4 m/s 700 mmHg 78%
    21:00 +11°C° 0 mm 3 m/s 701 mmHg 83%
    22:00 +10°C° 0 mm 3 m/s 701 mmHg 88%
    23:00 +10°C° 0 mm 3 m/s 701 mmHg 89%

    26 Abril, Quinta-feira

    Tempo Temperatura Precipitação Vento Pressão Humidade
    00:00 +9°C° 0 mm 3 m/s 701 mmHg 90%
    01:00 +8°C° 0 mm 3 m/s 701 mmHg 91%
    02:00 +8°C° 0 mm 3 m/s 701 mmHg 92%
    03:00 +7°C° 0 mm 3 m/s 702 mmHg 92%
    04:00 +7°C° 0 mm 3 m/s 702 mmHg 92%
    05:00 +7°C° 0 mm 4 m/s 702 mmHg 88%
    06:00 +7°C° 0 mm 5 m/s 703 mmHg 83%
    07:00 +8°C° 0 mm 5 m/s 703 mmHg 79%
    08:00 +9°C° 0 mm 5 m/s 703 mmHg 71%
    09:00 +10°C° 0 mm 6 m/s 704 mmHg 64%
    10:00 +11°C° 0 mm 6 m/s 704 mmHg 57%
    11:00 +11°C° 0 mm 6 m/s 704 mmHg 54%
    12:00 +13°C° 0 mm 6 m/s 704 mmHg 50%
    13:00 +13°C° 0 mm 6 m/s 704 mmHg 47%
    14:00 +13°C° 0 mm 6 m/s 704 mmHg 48%
    15:00 +11°C° 0 mm 6 m/s 704 mmHg 49%
    16:00 +12°C° 0 mm 5 m/s 704 mmHg 50%
    17:00 +10°C° 0 mm 4 m/s 704 mmHg 54%
    18:00 +8°C° 0 mm 4 m/s 704 mmHg 58%
    19:00 +7°C° 0 mm 3 m/s 704 mmHg 62%
    20:00 +5°C° 0 mm 3 m/s 704 mmHg 65%
    21:00 +5°C° 0 mm 2 m/s 705 mmHg 68%
    22:00 +4°C° 0 mm 2 m/s 705 mmHg 71%
    23:00 +4°C° 0 mm 2 m/s 705 mmHg 71%

    27 Abril, Sexta-feira

    Tempo Temperatura Precipitação Vento Pressão Humidade
    00:00 +3°C° 0 mm 2 m/s 705 mmHg 72%
    01:00 +3°C° 0 mm 2 m/s 705 mmHg 72%
    02:00 +3°C° 0 mm 2 m/s 705 mmHg 73%
    03:00 +3°C° 0 mm 2 m/s 705 mmHg 74%
    04:00 +3°C° 0 mm 1 m/s 705 mmHg 74%
    05:00 +5°C° 0 mm 1 m/s 706 mmHg 71%
    06:00 +6°C° 0 mm 1 m/s 706 mmHg 68%
    07:00 +7°C° 0 mm 1 m/s 706 mmHg 65%
    08:00 +9°C° 0 mm 1 m/s 706 mmHg 59%
    09:00 +10°C° 0 mm 2 m/s 707 mmHg 53%
    10:00 +12°C° 0 mm 2 m/s 707 mmHg 47%
    11:00 +13°C° 0 mm 2 m/s 707 mmHg 45%
    12:00 +13°C° 0 mm 2 m/s 706 mmHg 43%
    13:00 +14°C° 0 mm 2 m/s 706 mmHg 42%
    14:00 +14°C° 0 mm 2 m/s 706 mmHg 42%
    15:00 +14°C° 0 mm 2 m/s 705 mmHg 42%
    16:00 +15°C° 0 mm 2 m/s 705 mmHg 43%
    17:00 +13°C° 0 mm 2 m/s 704 mmHg 51%
    18:00 +10°C° 0 mm 2 m/s 704 mmHg 59%
    19:00 +9°C° 0 mm 2 m/s 704 mmHg 67%
    20:00 +8°C° 0 mm 2 m/s 703 mmHg 68%
    21:00 +7°C° 0 mm 2 m/s 703 mmHg 68%
    22:00 +6°C° 0 mm 2 m/s 703 mmHg 69%
    23:00 +6°C° 0 mm 2 m/s 703 mmHg 69%

    28 Abril, Sábado

    Tempo Temperatura Precipitação Vento Pressão Humidade
    00:00 +6°C° 0 mm 2 m/s 702 mmHg 69%
    01:00 +6°C° 0 mm 2 m/s 702 mmHg 69%
    02:00 +6°C° 0 mm 2 m/s 702 mmHg 70%
    03:00 +6°C° 0 mm 2 m/s 701 mmHg 71%
    04:00 +5°C° 0 mm 2 m/s 701 mmHg 73%
    05:00 +7°C° 0 mm 3 m/s 701 mmHg 72%
    06:00 +9°C° 0 mm 3 m/s 702 mmHg 71%
    07:00 +10°C° 0 mm 4 m/s 702 mmHg 71%
    08:00 +12°C° 0 mm 4 m/s 702 mmHg 67%
    09:00 +14°C° 0 mm 4 m/s 702 mmHg 64%
    10:00 +17°C° 0 mm 4 m/s 702 mmHg 61%
    11:00 +18°C° 0 mm 4 m/s 702 mmHg 59%
    12:00 +18°C° 0 mm 4 m/s 702 mmHg 57%
    13:00 +19°C° 0 mm 3 m/s 702 mmHg 56%
    14:00 +19°C° 0 mm 3 m/s 702 mmHg 56%
    15:00 +20°C° 0 mm 3 m/s 702 mmHg 57%
    16:00 +20°C° 0 mm 2 m/s 701 mmHg 57%
    17:00 +18°C° 0 mm 2 m/s 701 mmHg 64%
    18:00 +18°C° 0 mm 1 m/s 701 mmHg 71%
    19:00 +15°C° 0 mm 1 m/s 701 mmHg 78%
    20:00 +14°C° 0,1 mm 1 m/s 701 mmHg 81%
    21:00 +14°C° 0,1 mm 1 m/s 700 mmHg 84%
    22:00 +13°C° 0,1 mm 1 m/s 700 mmHg 87%
    23:00 +12°C° 0 mm 1 m/s 700 mmHg 88%
    Mostrar mais